Location: Callao
(39.8979°N, 113.7141°W)
Time: 17:54:28
(UTC+00:00)

ISS - Pass Details

Date: 08 March 2021
Orbit: 418 x 421 km, 51.6° (Epoch: 21 April)

Event Time Altitude Azimuth Distance (km) Brightness Sun altitude
Exits shadow 12:26:14 14° 339° (NNW) 1,271 -1.5 -18.2°
Maximum altitude 12:28:12 22° 24° (NNE) 957 -1.6 -17.8°
Drops below altitude 10° 12:30:56 10° 78° (ENE) 1,495 0.4 -17.3°
Sets 12:33:19 0° 94° (E) 2,357 1.7 -16.8°
